Back to catalog

SL-16 DEB

AliveLEO
NORAD 22368·DEBRIS·🇷🇺 Russia

Launched Dec 25, 1992 from Baikonur Cosmodrome

Loading…

Next Passes (next 24 hours)

TLE

FreshSource: Space-Track

Epoch: Sep 14, 2026, 09:47 UTC

1 22368U 92093BH  26257.40804308  .00000378  00000-0  10234-3 0  9994
2 22368  71.2435  44.9512 0110243 110.2547 281.9710 14.50621863755057

Track SL-16 DEB in real time with AllMySat

Download on the App Store